Location: Meanaryar
(48.4161°N, 4.7315°W)
Time: 09:23:41
(UTC+00:00)

Cosmos 1092 Rocket - Pass Details

Date: 21 January 2021
Orbit: 954 x 995 km, 83.0° (Epoch: 02 March)

Event Time Altitude Azimuth Distance (km) Brightness Sun altitude
Rises 07:14:16 0° 344° (NNW) 3,644 6.6 -7.7°
Reaches altitude 10° 07:16:57 10° 336° (NNW) 2,695 5.9 -7.3°
Maximum altitude 07:22:25 35° 273° (W) 1,503 4.6 -6.5°
Drops below altitude 10° 07:27:53 10° 210° (SSW) 2,690 6.3 -5.6°
Sets 07:30:35 0° 202° (SSW) 3,636 7.0 -5.2°
